国际通讯卫星 4-F8星 (INTELSAT 4-F8)

导读 | 豆包AI

INTELSAT 4-F8是国际通信卫星组织(ITSO)运营的第四代国际通信卫星,于1974年11月21日发射升空。该卫星由休斯空间通信公司基于HS-312平台建造,发射质量约1414千克,设计寿命7年,搭载12路C频段转发器,主要为全球提供商业通信服务,支撑跨洲际语音、数据传输业务,是早期全球通信卫星网络的重要组成部分,推动了国际通信基础设施的发展。

基本信息
目录编号:
7544
目录名称:
INTELSAT 4-F8
国际标识:
1974-093A
轨道中心:
EARTH
卫星名称:
国际通讯卫星 4-F8星
卫星全名:
国际通讯卫星 4-F8星 (INTELSAT 4-F8)
卫星状态:
在轨 (已飞行18741 天)
发射日期:
1974-11-21 UTC
国别 :
(ITSO)
星等 :
--
轨道信息
数据来源 国际轨道数据 AOE轨道数据
星历时间 2026-03-13T13:20:03+0800
20小时前
查看轨道信息
2026-03-13T04:00:00+0800
1天前
查看轨道信息
半长轴 42302.203km 42302.174km
偏心率 0.0001284 0.0001329
轨道倾角 8.172° 8.173°
近地点辐角 227.539° 225.569°
升交点赤经 305.210° 305.211°
平近点角 121.770° 344.029°
近地点 35918.634km 35918.415km
远地点 35929.498km 35929.659km
周期 1443.126分钟 1443.124分钟
每日圈数 0.997834 0.997835
详细信息
卫星平台:
HS-353
平衡模式:
自旋稳定
覆盖范围:
全球
运营商:
国际卫星通信公司
运营商所在国:
美国
制造商(研发单位):
休斯公司
制造商所在国:
美国
使用方式:
暂无
卫星简介
从1965年4月至1984年3月,国际通信卫星组织发射了5代、6种不同性能的卫星共计35颗,除6颗卫星因运载火箭和远地点发动机故障而发射失败外,其余29颗卫星均被送到了预定的静止轨道位置。1984年8月前后,国际通信卫星组织利用部署在大西洋、太平洋、印度洋上空的15颗国际通信卫星,为遍布世界各地170多个国家或地区提供电话、电传、电报、电视和数据传输等电信业务;该卫星已退役。
2D轨道图
3D轨道图
轨道高度分析图
轨道倾角分析图
轨道综合分析图
查看轨道综合分析图